Theta_e
313 313 312 311 311 310 309 307 304 304 305 306 306 306 306 306 306 306 307 307 308 308 306 305 306 306 306 307 309 310 310 312 314 316 321 323 311 311 315 320 327 329 326 325 325 328 330 332 334 336 341 347 351 354 354 354 355 359 365 365 363 368 373 374 375 371 367 366 364 360 361 364 364 361 361 363 363 362 360 359 354 352 350 349 349 348 347 349
314 313 312 311 311 310 310 308 306 305 304 306 306 306 306 306 306 307 307 307 308 308 306 308 309 309 309 310 310 310 312 315 317 322 327 318 311 315 317 321 326 329 329 328 326 326 331 332 332 333 336 343 348 353 355 356 356 359 366 367 366 375 377 368 367 368 367 367 364 362 363 364 363 362 362 365 363 361 361 358 354 353 351 349 349 347 349 351
313 313 312 311 311 310 310 310 308 306 304 305 306 306 306 306 306 307 307 307 309 307 307 310 311 311 310 311 311 311 314 318 327 337 332 314 313 318 318 320 324 325 324 326 325 322 327 330 331 335 336 339 343 348 354 356 358 358 363 368 369 373 372 364 364 367 366 365 364 363 363 363 363 361 363 364 362 361 360 357 354 355 352 350 348 347 350 351
313 313 312 311 311 312 311 310 309 307 305 304 306 307 306 306 306 307 307 308 308 306 308 311 312 310 311 310 311 313 316 326 337 336 327 316 316 319 318 320 321 322 320 323 324 323 327 330 332 335 336 340 340 343 349 351 357 359 358 365 368 367 369 368 367 365 362 364 364 363 363 364 362 361 363 363 363 365 361 355 353 353 352 349 348 348 350 352
312 312 311 310 311 312 311 311 310 308 305 304 305 307 307 306 306 307 307 308 308 307 308 312 311 311 311 310 311 315 321 333 335 330 326 320 317 320 320 321 320 320 320 319 321 323 325 330 334 335 337 341 342 345 347 346 352 357 356 359 363 365 367 369 367 364 362 364 364 363 364 364 362 361 363 362 364 366 359 355 353 350 350 349 348 348 351 351
312 312 311 310 310 311 311 310 310 308 306 304 304 306 307 307 307 307 308 308 309 307 307 312 312 312 312 311 313 318 325 330 328 326 325 322 320 321 322 323 320 318 319 318 318 320 322 325 331 336 338 340 344 348 347 344 347 354 354 352 358 361 365 366 362 365 365 364 364 363 363 363 362 363 362 361 365 365 361 359 355 348 349 349 348 349 350 350
312 311 311 310 310 310 310 310 310 309 306 304 304 306 307 307 307 307 308 308 309 308 307 311 313 313 312 311 316 321 327 331 327 324 324 324 323 322 322 323 320 319 318 318 317 318 322 324 328 334 337 340 345 346 346 343 344 349 350 350 355 359 363 362 360 364 365 365 364 362 362 362 364 364 362 363 365 363 363 362 355 349 349 349 347 348 349 350
311 311 310 310 310 310 310 310 309 308 306 304 304 305 307 308 307 307 308 308 309 309 308 310 312 313 312 311 317 323 330 335 326 324 324 324 325 324 323 324 322 320 319 318 317 319 322 325 328 331 334 340 343 343 345 344 342 345 346 347 351 360 362 358 360 362 363 365 363 361 364 363 363 361 362 364 361 359 362 358 353 348 348 349 346 347 348 349
311 310 309 309 309 309 310 309 308 307 305 304 304 305 308 308 308 308 309 309 309 310 309 309 312 312 312 315 319 324 329 329 323 325 325 323 324 325 325 324 324 322 320 320 317 317 323 326 328 331 334 336 337 339 341 344 345 344 343 344 346 357 360 357 361 361 362 364 361 364 367 365 360 359 362 363 360 361 361 356 354 349 347 348 345 346 347 348
310 309 309 308 308 309 308 308 307 306 305 305 304 306 308 309 309 308 309 310 309 310 309 309 312 312 314 319 323 327 324 320 322 325 326 324 322 324 325 324 325 323 322 321 317 316 322 327 327 330 333 334 337 338 338 342 343 337 336 336 337 352 359 357 362 363 363 362 361 366 367 365 361 361 366 362 360 361 359 357 355 349 347 348 345 345 346 347
310 309 309 308 308 308 307 307 306 305 305 304 305 307 309 309 309 309 310 310 310 311 309 310 313 313 316 320 326 330 322 317 321 324 327 326 323 323 324 322 323 323 323 321 318 315 319 324 326 330 334 335 336 336 336 337 335 333 332 330 338 355 359 358 362 364 363 362 363 365 366 364 361 366 370 361 358 359 358 360 355 348 348 347 345 345 345 347
310 309 309 309 308 308 307 307 306 306 305 305 306 309 310 310 310 310 310 311 311 311 309 310 313 316 320 323 326 326 322 321 322 325 327 326 323 323 322 320 320 321 323 321 318 317 317 320 323 328 333 334 334 335 337 333 331 333 329 334 353 362 360 359 361 362 363 362 362 362 363 365 365 367 365 357 358 359 359 361 354 347 347 346 345 344 344 346
310 309 309 309 309 309 309 308 307 306 305 306 308 310 311 311 311 311 311 312 312 311 309 311 314 317 322 329 329 323 323 325 324 326 328 325 323 323 322 321 321 320 320 321 320 318 317 318 322 327 329 330 332 334 334 331 332 332 329 344 363 365 362 363 362 361 361 361 361 360 358 363 366 364 360 357 360 360 362 363 353 347 347 346 345 344 344 344
309 309 309 310 309 310 310 309 308 307 306 307 310 311 312 312 313 313 313 313 312 312 310 312 316 319 325 333 327 323 325 325 323 326 328 328 324 323 324 326 326 323 321 320 320 319 317 319 322 324 326 327 330 332 332 332 331 332 329 341 360 363 362 364 362 361 362 361 361 360 355 359 365 362 357 358 359 360 361 361 354 347 347 346 345 344 344 344
308 308 310 310 310 310 310 310 310 308 307 309 311 313 313 313 315 314 314 313 313 312 310 314 318 321 331 337 327 324 324 322 323 321 324 326 324 323 327 329 328 324 322 320 320 320 320 321 322 325 328 329 331 332 334 335 334 337 326 326 348 357 359 366 363 359 362 362 361 360 357 360 362 361 359 358 357 359 359 358 355 348 347 346 346 345 344 344
309 309 310 310 310 310 310 311 311 310 308 310 313 314 314 316 317 316 315 313 313 313 313 318 320 321 332 338 326 324 324 321 322 319 320 321 320 321 325 326 325 321 321 320 320 321 321 323 326 330 333 335 335 334 335 334 336 341 329 322 332 340 351 367 363 357 361 362 362 361 363 365 362 359 359 358 357 359 358 357 356 349 347 347 346 345 345 344
310 310 310 311 311 311 311 311 312 310 309 312 314 315 316 319 318 317 315 314 314 312 315 321 322 322 329 330 323 325 325 321 320 318 319 319 318 320 322 323 322 320 319 319 320 321 323 328 333 336 336 334 336 336 332 329 330 335 333 327 325 330 351 362 361 359 359 362 364 364 367 367 361 360 360 358 357 359 357 356 355 350 347 348 347 346 346 346
311 311 311 311 311 312 311 311 312 310 310 313 315 316 318 319 317 316 316 316 317 317 319 322 324 323 324 324 323 323 321 319 317 317 317 318 317 318 321 322 323 322 321 323 325 325 329 335 337 339 340 334 334 334 331 331 330 328 328 326 323 327 343 353 360 362 358 362 365 363 368 367 360 361 361 359 358 357 357 355 355 352 347 348 348 347 347 347
311 311 311 311 311 312 311 312 312 309 311 315 316 316 318 318 318 319 317 319 322 326 327 328 329 326 321 325 325 320 318 315 315 316 316 316 315 316 318 320 325 327 327 330 331 330 334 339 338 338 340 337 335 333 332 334 332 328 326 324 323 322 326 339 355 360 358 362 365 363 365 365 362 363 361 359 358 356 357 355 356 355 349 349 349 349 347 347
311 311 311 311 311 312 312 312 311 310 312 316 315 316 316 316 319 320 318 322 326 325 326 328 332 329 323 325 324 318 315 314 314 316 316 316 316 316 316 320 326 329 331 335 335 334 335 341 342 339 339 339 336 334 332 333 331 329 328 326 326 323 324 327 337 355 361 360 361 363 363 364 363 362 361 359 357 357 356 356 357 358 354 350 350 350 348 349
311 311 311 311 311 312 312 312 311 310 313 315 314 316 317 315 316 317 315 319 321 318 319 322 325 325 322 321 320 316 313 313 314 314 315 317 316 316 316 322 327 329 331 334 335 334 334 340 342 340 338 336 335 332 331 332 330 330 328 326 325 323 326 326 328 348 360 358 359 361 362 362 363 361 361 359 358 358 356 356 357 358 356 352 350 350 349 349
310 310 311 311 312 312 312 312 311 312 314 314 314 315 317 315 313 314 314 316 316 313 316 316 316 316 316 316 317 315 313 314 314 314 316 316 316 316 318 324 328 330 331 331 333 335 336 338 338 338 336 332 332 331 330 330 331 331 327 325 324 324 326 327 331 348 356 357 359 359 360 359 362 363 361 360 359 357 355 355 356 356 355 353 352 350 350 349
310 310 311 311 312 312 313 312 311 313 314 314 314 314 315 314 314 313 313 314 315 314 314 315 314 315 315 313 314 313 313 313 315 316 316 316 316 317 320 324 327 330 331 332 335 335 335 337 336 335 332 331 333 330 330 330 328 330 328 323 322 323 324 321 330 351 356 355 357 362 365 363 365 364 360 359 358 357 355 355 356 356 354 353 352 351 351 350
310 310 310 312 311 312 313 311 312 314 314 314 315 316 316 315 314 314 314 315 315 314 315 315 315 316 315 313 312 313 313 313 314 316 318 317 316 318 321 324 326 329 331 333 335 334 335 336 333 331 329 330 332 331 330 329 328 329 328 326 323 324 326 321 328 350 355 352 359 366 366 364 366 363 361 360 358 357 358 357 357 356 354 352 352 352 351 351
310 310 311 312 312 312 312 312 313 314 314 315 316 316 316 315 315 313 316 317 315 316 317 313 314 314 313 312 312 313 313 313 314 316 318 317 317 318 320 320 324 328 330 331 333 334 335 333 329 329 330 329 329 330 330 328 327 327 328 329 326 326 328 323 328 345 348 347 355 358 354 355 359 358 363 362 358 359 357 356 358 355 353 353 352 352 350 351
310 311 311 312 312 311 312 314 313 313 316 316 316 317 315 315 315 313 319 322 317 318 318 313 312 313 312 312 312 313 314 315 314 315 317 317 316 318 317 317 322 325 327 328 330 333 332 330 328 329 329 329 328 329 328 328 325 323 328 330 327 327 326 322 323 329 335 343 354 351 348 348 348 349 360 361 359 360 357 357 356 354 354 354 353 351 349 350
311 312 312 312 312 311 314 315 312 314 318 316 315 316 315 316 314 312 321 327 320 317 316 313 312 312 311 311 311 313 315 315 315 315 317 317 316 317 316 318 318 318 321 324 323 325 325 325 328 329 327 327 328 327 327 329 324 323 329 328 326 327 323 323 321 318 324 336 346 350 350 349 345 346 357 360 359 360 358 357 356 355 355 354 353 352 349 349
312 312 312 313 313 311 312 312 311 315 318 316 315 316 316 316 314 315 323 325 319 316 314 312 311 311 311 311 312 314 314 314 315 314 316 317 316 316 317 318 318 318 319 321 319 320 321 319 323 325 324 326 328 328 328 327 325 326 328 325 325 324 324 325 321 318 323 328 336 346 347 348 349 351 357 360 360 360 360 358 357 355 354 354 354 352 350 349
312 313 313 314 313 312 312 311 311 315 315 315 316 316 315 314 316 322 325 321 316 313 312 312 312 312 312 312 313 314 313 313 315 315 315 315 315 315 317 317 318 317 317 317 318 319 318 318 319 318 320 324 326 329 328 325 327 327 325 325 324 324 326 327 322 319 320 323 333 341 341 343 347 350 354 358 357 359 361 359 357 356 355 354 354 353 351 350
313 313 314 314 313 313 312 311 312 314 314 315 316 316 315 318 326 328 322 317 315 312 312 312 312 312 313 314 314 313 313 314 314 316 315 314 314 314 316 316 316 318 319 318 318 317 317 319 320 317 318 321 322 325 324 323 326 325 325 324 324 328 328 332 338 327 315 318 330 336 338 341 341 343 348 355 356 358 361 359 357 357 355 354 354 353 352 350
313 314 315 314 314 313 312 312 313 313 314 315 316 316 316 323 333 331 320 315 314 312 312 313 313 314 313 314 314 313 314 314 314 316 315 314 313 313 315 317 317 322 326 322 319 318 318 319 318 317 318 317 318 323 321 319 321 322 328 328 322 326 327 327 334 323 312 321 330 333 337 337 336 339 346 355 357 356 358 358 358 358 356 354 354 353 352 351
315 316 315 314 314 314 313 315 315 314 316 316 316 321 326 326 326 323 319 315 312 312 312 314 314 314 314 314 314 314 314 313 313 314 315 314 313 312 313 314 314 319 321 318 316 318 318 317 316 316 317 316 316 321 318 317 320 318 327 332 322 323 323 320 325 321 317 324 325 325 331 333 335 337 343 353 355 354 356 356 356 357 356 355 354 354 353 352
315 317 316 314 315 315 316 317 316 316 318 316 317 327 333 329 321 318 317 314 311 312 313 315 314 313 315 314 313 314 314 313 313 315 314 313 313 313 312 311 312 315 316 316 316 317 315 316 316 316 316 316 315 316 314 316 319 316 321 327 322 322 321 321 325 323 319 321 318 319 323 325 324 328 337 344 346 352 353 354 355 355 355 356 354 353 353 353
316 318 317 316 316 317 318 319 318 320 318 316 322 329 327 322 320 319 317 313 312 314 313 313 313 314 315 313 313 314 315 313 313 314 314 313 313 314 313 311 311 312 316 318 318 317 315 315 316 315 315 315 315 314 313 314 315 317 322 323 322 325 323 322 325 322 318 320 319 316 317 317 316 323 334 331 336 351 351 351 355 353 356 355 354 355 353 354
318 319 319 318 317 318 319 319 320 320 317 317 323 326 320 318 318 318 316 314 314 314 313 312 313 315 315 313 313 313 314 315 312 311 312 312 312 313 312 312 311 311 314 318 317 316 316 316 315 315 314 314 315 314 315 316 315 318 324 321 319 322 322 321 325 325 322 319 319 317 318 324 323 326 335 328 330 344 348 352 355 353 356 355 354 355 353 353
319 319 320 319 318 319 318 319 320 318 318 322 322 318 316 315 314 315 314 314 313 312 315 315 312 313 313 313 313 313 314 315 313 314 313 311 311 311 311 312 311 311 313 316 316 315 317 318 314 315 316 314 314 315 315 316 317 321 321 319 317 317 318 319 322 328 323 316 321 321 316 323 326 322 333 340 338 340 344 350 352 352 356 356 355 356 353 354
321 321 322 320 318 317 316 317 318 317 322 327 322 316 316 313 312 314 314 313 312 312 315 316 312 312 313 312 312 312 314 313 313 314 313 313 313 311 310 311 311 311 312 315 316 313 315 318 315 314 316 315 313 315 316 314 315 318 317 317 320 320 322 322 320 323 322 318 323 321 315 322 327 323 334 347 346 344 345 344 345 350 355 356 356 356 354 353
322 321 322 319 317 316 316 317 315 319 327 329 325 320 315 312 312 312 312 312 312 313 314 314 312 312 312 313 312 311 313 314 313 315 314 313 313 311 310 311 312 311 311 314 317 314 313 316 317 314 314 314 314 315 317 315 313 316 316 317 322 323 323 323 318 318 320 320 322 321 319 326 332 332 337 345 347 348 347 346 345 346 351 356 356 354 355 354
321 326 325 318 316 317 316 315 316 326 330 324 324 322 314 312 312 311 312 313 311 312 313 313 313 312 312 313 312 310 312 313 312 314 315 313 313 312 310 311 312 311 312 313 314 316 316 316 318 316 314 314 316 315 316 315 313 315 316 316 320 322 320 320 320 318 319 321 322 323 324 329 339 339 333 339 349 348 347 350 348 346 346 352 356 355 354 354
321 331 327 316 316 317 315 316 321 332 331 320 319 319 313 312 312 310 312 312 311 312 312 311 313 313 312 311 312 311 311 312 311 312 313 312 312 313 311 311 312 312 313 313 312 315 320 318 316 317 315 315 317 315 314 314 314 315 316 314 315 319 320 323 323 318 318 324 326 325 324 330 340 335 327 338 348 345 345 348 349 348 346 346 352 355 354 353
322 330 324 316 316 316 316 321 325 328 326 319 316 315 314 314 311 311 312 312 312 312 310 311 312 312 312 311 311 311 311 311 312 312 312 312 312 314 312 311 312 313 315 317 314 314 319 318 318 318 315 314 316 314 312 314 314 314 315 314 313 314 318 326 329 322 320 322 322 323 323 329 334 325 327 342 345 342 343 343 345 350 348 344 348 354 353 353
327 326 318 315 316 315 318 324 326 325 320 316 314 314 316 315 312 311 312 311 312 312 312 312 312 312 313 312 312 313 313 312 313 313 313 312 312 313 312 312 313 314 316 317 315 316 319 318 317 317 315 312 312 313 312 314 315 314 313 312 312 313 314 320 323 323 321 321 324 326 325 330 333 325 331 344 342 339 341 339 341 347 348 347 346 351 354 353
334 328 318 314 314 316 319 320 322 321 317 313 311 312 313 312 311 311 312 312 312 312 312 312 312 314 313 313 314 314 314 313 313 314 314 314 314 312 313 314 313 315 317 318 317 318 319 317 315 317 319 316 313 315 314 311 312 313 311 311 312 312 312 313 315 319 323 324 328 330 330 333 333 329 335 344 341 339 339 337 338 342 346 349 347 350 353 351
330 328 327 318 312 315 318 317 319 319 315 312 312 312 312 310 311 311 311 312 312 312 312 312 312 314 313 313 314 314 314 315 314 314 315 316 315 314 315 315 313 315 318 318 317 316 315 318 321 322 323 321 319 319 316 311 310 311 310 311 311 311 311 312 315 322 329 328 323 325 332 335 328 330 340 343 341 340 339 336 336 338 341 346 349 355 358 355
327 327 327 322 314 314 316 316 319 319 316 314 313 313 313 312 311 312 311 312 312 312 312 312 311 313 313 313 313 313 315 316 315 316 318 318 316 315 315 314 313 316 317 317 319 316 314 320 327 326 322 322 322 319 316 313 312 311 311 310 310 310 311 312 316 323 331 330 320 320 330 330 324 334 343 343 341 340 338 335 335 335 336 339 344 349 354 357
328 325 325 326 320 316 317 316 318 319 318 319 317 313 313 314 313 312 312 311 311 311 311 312 312 313 313 314 315 315 315 315 316 319 320 318 316 314 313 314 316 317 316 315 318 321 320 321 327 329 326 323 323 320 317 315 312 312 312 310 310 310 310 312 316 319 325 325 321 327 332 323 323 338 343 341 342 340 338 335 334 333 334 335 338 341 344 346
327 323 321 325 323 320 320 317 317 319 319 319 318 314 313 315 314 314 313 312 311 312 313 312 312 314 315 315 317 317 317 317 317 318 318 316 317 316 314 315 316 316 316 315 318 325 324 318 319 324 324 321 319 317 314 313 312 311 311 311 311 311 310 312 315 316 319 320 321 334 336 321 323 341 344 340 342 340 337 336 333 333 333 333 334 336 337 340
322 321 318 319 319 320 321 318 316 317 318 318 319 316 314 314 314 315 315 314 312 313 316 315 313 315 316 316 318 319 320 321 318 316 316 315 317 318 317 316 316 315 315 315 318 323 323 318 314 315 317 316 314 313 312 311 311 311 312 313 312 311 311 311 313 314 316 317 320 326 326 320 329 343 341 338 340 339 337 336 333 332 333 332 333 333 333 335
322 323 321 318 319 320 319 318 317 316 317 322 322 317 315 316 316 314 314 316 315 314 317 316 314 316 316 318 321 320 320 321 318 316 315 314 314 316 316 316 316 316 315 314 317 320 322 322 317 313 316 317 314 313 312 312 312 312 313 313 311 311 311 311 313 314 313 317 320 319 321 327 336 342 339 335 336 336 336 335 333 333 333 332 333 333 333 333
322 323 323 324 325 323 320 318 318 317 318 323 322 317 315 316 317 315 313 316 316 315 316 316 315 316 316 318 322 320 317 318 317 315 314 314 315 315 315 315 315 316 317 315 315 316 316 318 319 318 318 318 316 314 313 313 313 312 313 313 312 313 314 314 317 319 320 323 323 322 332 341 340 338 338 335 333 334 335 334 333 333 332 332 332 332 332 332
316 315 318 326 327 323 320 319 319 320 320 322 321 318 317 316 317 317 315 314 315 316 316 317 317 317 317 318 319 316 316 317 316 314 313 312 313 314 313 315 313 313 316 316 314 315 315 317 322 322 319 318 316 314 314 315 313 313 314 315 315 318 318 319 323 327 330 332 332 333 341 343 336 334 336 334 332 333 333 333 333 332 332 332 332 332 333 332
316 315 317 325 325 319 319 320 320 320 319 318 320 318 318 317 317 319 319 315 315 316 315 317 320 320 318 317 317 315 314 314 314 313 313 312 313 312 312 314 312 311 314 315 314 318 320 319 320 319 318 320 318 314 316 318 316 316 314 312 317 322 322 326 331 331 330 333 335 338 337 333 330 330 333 333 332 333 333 332 332 332 331 331 332 332 333 332
Wind_Speed
20 20 22 22 22 21 21 21 22 22 23 23 20 18 16 15 15 15 17 18 20 19 17 15 12 10 8 7 7 8 10 11 10 7 9 8 9 10 11 14 17 21 19 18 19 16 10 7 7 9 7 5 3 2 5 6 3 1 1 1 2 3 2 2 2 1 4 5 6 6 5 6 6 3 1 1 4 4 2 4 5 5 8 12 18 28 31 30
21 21 22 23 23 22 22 21 21 21 23 23 21 19 17 16 15 15 16 18 20 18 15 13 10 8 7 7 7 9 11 11 9 9 11 5 8 15 17 16 19 22 20 20 21 19 11 7 9 8 5 3 4 4 4 5 5 3 2 2 3 3 3 3 4 3 3 6 8 7 6 6 5 4 1 2 4 2 4 7 8 10 11 15 22 28 28 29
21 22 22 23 23 23 23 22 21 20 22 23 22 20 18 17 15 15 16 17 19 17 13 10 7 7 7 8 9 10 10 8 5 6 5 4 15 20 20 18 18 20 20 19 21 19 13 11 12 9 4 2 3 4 4 4 5 4 2 2 5 4 2 3 5 4 4 9 10 7 6 6 4 3 0 4 7 3 5 9 11 13 14 18 20 23 26 28
22 23 23 23 23 22 23 23 22 21 21 22 22 20 19 18 16 15 16 17 17 15 10 7 5 7 9 9 9 10 8 4 2 3 1 6 17 22 22 19 18 20 17 15 16 16 11 12 12 7 4 3 2 4 5 4 4 3 5 4 4 3 1 2 5 5 7 9 10 9 8 6 4 3 2 6 8 3 5 8 11 15 18 21 19 20 24 25
24 23 24 24 23 22 22 23 23 22 21 21 22 21 19 18 16 16 16 16 16 13 8 5 4 7 10 10 9 8 4 2 2 4 2 8 16 22 23 18 18 20 17 12 13 14 9 9 9 5 3 3 2 3 5 7 5 3 6 7 3 2 2 2 7 6 7 8 8 10 9 7 4 3 3 7 6 3 4 4 9 16 18 22 20 19 22 21
24 24 24 24 23 23 23 23 23 22 22 22 22 22 20 18 16 16 15 15 15 13 8 4 5 9 12 10 6 5 1 1 3 4 5 9 14 19 20 17 16 18 18 13 11 12 6 5 6 5 3 2 4 5 5 6 7 5 5 6 4 3 2 3 8 7 7 8 8 8 7 7 6 5 4 6 3 2 2 2 7 16 19 23 21 18 20 18
25 25 25 25 24 24 24 23 23 23 24 24 23 23 21 18 16 16 15 13 14 12 8 5 6 9 11 7 3 2 2 4 5 5 6 9 13 15 17 16 16 18 18 13 10 9 5 5 6 5 4 3 4 6 6 5 8 7 6 5 5 6 5 5 8 8 8 8 7 7 7 7 7 6 5 3 1 2 2 3 4 16 21 22 18 16 18 17
26 26 26 25 25 25 24 24 23 23 24 25 25 24 22 18 15 15 14 13 12 12 9 6 6 9 9 3 0 2 1 5 5 8 8 10 13 15 17 16 15 18 18 14 11 9 6 7 7 5 4 5 4 4 6 6 7 8 8 7 5 6 7 7 8 8 8 6 7 10 8 6 5 6 5 3 3 2 2 1 3 14 19 17 16 17 16 15
26 26 27 26 26 25 25 25 24 25 26 27 27 26 23 18 15 14 12 12 12 12 9 6 6 7 4 0 1 1 2 3 5 10 10 12 15 17 20 17 18 19 16 15 14 11 7 8 8 6 4 5 5 6 6 5 5 7 9 8 6 6 9 9 9 9 8 6 8 11 8 5 5 5 5 5 6 4 3 2 4 14 18 15 15 16 15 15
27 26 27 27 27 26 26 26 26 27 28 28 28 26 23 19 15 13 11 12 12 11 8 4 5 5 2 2 3 2 4 3 4 10 10 13 17 19 22 20 21 22 15 13 15 13 8 6 6 4 2 2 4 6 6 5 3 5 6 7 9 8 10 11 10 9 8 6 8 10 9 6 4 3 2 6 7 5 6 5 6 14 18 15 14 15 15 15
27 26 28 28 27 28 27 27 28 29 29 29 29 26 23 19 15 12 10 11 12 10 5 3 3 3 1 2 3 2 4 2 4 10 10 12 17 17 22 22 23 25 18 10 13 18 13 6 2 1 2 2 3 5 5 5 3 6 6 7 6 8 10 9 10 10 8 6 6 9 10 5 1 2 3 7 7 8 11 8 9 16 17 15 14 14 13 14
27 27 28 28 29 29 29 30 30 30 31 30 28 26 22 18 16 12 8 10 10 7 4 3 2 1 1 1 3 6 3 2 3 10 10 11 13 10 14 21 24 27 22 11 12 22 19 8 1 2 2 2 4 5 5 5 5 6 6 5 1 7 7 7 7 8 7 5 8 9 8 2 4 4 5 9 8 9 11 9 12 17 16 14 13 13 12 14
27 28 29 29 30 31 31 32 32 32 31 30 28 25 21 18 16 12 8 8 6 5 3 3 1 2 1 1 6 5 1 4 2 10 13 12 9 7 11 16 20 25 25 17 13 19 19 10 4 4 3 3 4 5 6 7 6 4 3 2 5 4 3 6 5 7 6 6 12 8 3 5 9 7 7 8 8 9 10 9 12 16 15 13 12 12 12 14
28 29 29 30 31 32 34 33 33 33 32 30 27 24 22 19 15 11 8 5 4 3 4 3 2 3 2 4 6 2 2 2 3 11 16 15 9 7 12 13 14 20 24 20 10 10 15 12 7 5 4 4 5 6 6 5 3 2 1 2 4 1 3 7 5 9 6 5 12 6 1 5 9 9 10 9 10 11 12 11 12 15 15 12 12 13 12 14
28 29 30 31 32 33 35 34 34 33 32 30 26 24 23 18 12 9 5 2 3 4 4 2 3 3 1 5 5 1 1 1 6 12 15 16 11 6 11 14 14 18 21 18 9 7 13 12 6 4 4 5 5 4 5 3 3 1 1 1 2 2 3 5 6 10 6 5 11 6 2 3 6 10 11 10 11 13 15 13 12 15 16 13 12 13 12 13
29 30 31 31 32 33 34 34 34 33 32 28 25 23 19 13 7 3 2 5 5 5 3 2 3 3 1 4 3 1 3 4 6 10 13 16 13 9 11 13 11 13 16 16 12 8 9 8 4 3 4 4 4 3 3 3 4 3 1 1 3 2 2 3 6 9 4 5 9 7 2 1 4 9 10 10 12 12 15 14 13 16 17 14 12 12 12 12
30 30 31 31 32 33 33 34 33 33 31 26 24 21 13 7 2 5 8 7 6 6 4 3 1 1 2 5 3 2 4 6 6 8 12 15 13 10 10 8 5 9 9 8 9 6 4 3 3 3 2 2 2 2 2 2 3 3 2 0 2 2 3 3 5 8 5 6 9 9 5 4 2 10 11 12 14 13 15 16 14 15 16 14 12 13 12 13
30 30 30 30 31 31 32 33 31 32 28 23 23 16 7 8 8 10 13 11 7 5 3 2 1 1 2 5 3 6 9 6 6 5 9 12 12 10 9 5 4 7 4 0 3 3 2 2 1 1 2 1 2 4 2 4 3 1 1 2 3 1 3 4 4 8 10 7 8 10 8 7 3 9 11 11 14 14 16 17 14 14 17 14 13 14 13 14
30 30 30 30 31 30 31 31 29 30 25 21 21 10 5 10 9 8 11 10 4 2 1 1 2 1 2 5 5 10 11 4 4 4 8 9 9 8 5 4 5 7 4 1 1 3 3 1 1 1 2 2 2 4 5 6 4 3 1 2 3 3 1 4 3 7 13 10 9 11 11 9 6 9 11 11 13 13 14 14 12 13 16 15 13 14 14 15
30 30 29 30 30 30 30 29 28 27 20 20 21 8 3 5 4 2 2 3 3 3 2 3 5 2 4 6 6 9 10 4 3 4 7 8 9 7 3 3 5 4 3 4 2 2 3 2 3 4 5 4 4 4 6 6 4 2 3 3 4 4 3 4 3 6 12 10 9 13 11 9 9 11 12 12 12 12 13 14 11 11 13 15 15 16 16 15
31 30 30 30 30 30 29 27 26 22 14 17 18 6 2 2 2 3 4 3 4 6 6 5 7 6 8 9 9 7 6 2 1 1 4 7 8 7 1 3 6 2 2 4 1 0 2 4 5 6 6 6 5 5 5 4 4 4 3 4 4 3 5 5 4 5 12 9 6 9 9 7 8 11 12 13 14 15 16 17 15 13 13 12 15 17 17 14
30 30 31 30 29 29 27 26 23 15 11 14 12 3 1 3 3 5 3 4 6 6 7 6 5 7 9 12 16 10 2 2 3 4 3 6 4 4 2 3 6 3 2 2 2 2 1 4 7 8 6 5 5 4 4 5 5 4 3 3 3 3 4 5 4 1 8 7 3 3 5 4 4 6 9 13 15 14 16 18 16 15 15 13 14 16 16 15
30 31 31 29 29 28 26 25 17 8 11 13 7 4 6 9 7 5 2 2 6 4 5 5 4 5 6 8 11 6 3 1 1 2 3 6 2 3 5 4 5 3 2 4 3 2 2 5 8 8 4 3 5 5 4 4 4 4 4 3 2 1 1 3 3 4 4 3 0 5 4 1 1 1 6 11 11 9 12 14 12 13 15 15 14 15 16 17
31 31 30 29 29 26 25 22 10 7 13 9 3 7 12 13 10 8 4 1 4 5 5 4 4 4 3 4 3 4 3 2 2 2 5 8 3 2 4 4 4 2 2 5 6 4 6 8 6 5 4 4 5 6 4 3 4 4 5 6 3 2 4 5 1 2 3 3 2 6 4 3 3 5 6 7 7 7 9 12 10 11 14 12 12 14 16 17
31 31 30 29 26 26 25 15 5 11 13 3 3 11 14 15 13 9 5 2 3 5 4 2 1 2 2 2 2 2 2 0 2 3 5 9 5 3 2 2 4 3 5 5 6 4 8 8 3 4 6 6 5 7 5 5 3 5 6 8 6 5 8 7 2 2 2 1 3 4 3 4 3 7 7 5 8 9 8 12 13 12 13 12 11 14 15 16
31 31 30 27 24 25 19 5 6 15 10 0 6 13 12 13 13 8 3 3 2 4 1 0 0 1 2 1 1 2 5 2 4 2 2 6 5 4 2 1 1 3 6 4 4 3 5 4 3 5 7 6 6 7 5 6 3 5 5 7 8 8 9 7 4 3 1 3 4 5 4 3 2 6 10 10 11 12 10 13 15 13 14 14 12 13 15 15
32 30 29 25 21 22 12 2 10 13 2 2 10 12 12 13 11 4 2 4 2 3 0 1 0 0 1 1 1 4 3 4 3 1 1 4 1 3 3 2 1 1 2 3 2 3 2 2 1 4 4 4 5 6 6 7 5 6 5 6 7 8 8 7 6 5 4 1 1 4 3 1 2 5 9 12 11 12 13 14 16 15 15 16 14 14 15 16
32 29 27 23 19 16 8 6 11 6 0 7 12 12 13 12 6 3 4 3 1 1 0 1 1 1 2 1 2 3 3 3 1 1 1 6 6 4 3 3 5 4 1 5 2 5 1 1 1 3 3 4 4 7 9 8 6 9 7 7 6 7 8 6 6 5 3 1 1 5 2 2 4 3 6 11 11 14 16 17 17 17 17 17 16 16 16 16
31 27 24 22 17 9 5 6 7 3 5 11 13 14 13 8 3 4 3 2 2 2 0 1 2 2 2 2 3 3 1 0 2 2 3 10 11 5 2 2 5 4 1 4 4 4 1 3 4 3 3 4 5 9 8 8 8 10 4 4 3 4 5 4 5 4 2 2 4 7 6 3 4 3 6 9 10 14 17 17 17 17 17 17 16 17 16 15
28 23 21 21 13 3 2 7 7 4 9 12 14 16 9 3 3 4 2 1 1 1 1 2 2 1 2 3 3 3 2 0 0 3 5 6 10 9 2 1 4 4 2 2 1 4 3 4 2 3 0 5 6 6 4 6 9 7 1 0 0 0 1 1 2 2 3 1 6 8 12 8 3 3 5 9 13 17 15 13 14 16 17 18 17 17 17 15
25 20 18 17 10 2 2 5 5 6 10 13 16 13 4 3 3 4 2 1 1 2 2 2 2 0 2 3 1 1 2 2 3 5 5 5 9 11 7 5 4 4 4 4 3 3 5 5 2 1 4 4 3 3 3 3 2 0 1 1 1 2 2 3 4 2 3 4 7 7 10 8 4 5 6 11 16 17 15 13 16 19 19 18 17 16 16 16
22 17 13 11 8 5 4 3 6 9 10 14 14 6 4 3 3 3 1 3 2 2 2 2 2 0 1 3 2 1 4 4 4 6 5 5 7 7 7 5 2 2 3 3 3 3 3 3 3 3 5 10 6 3 5 6 6 5 3 4 3 1 2 1 2 1 3 5 6 5 7 5 5 6 8 13 16 14 14 14 17 19 19 17 16 16 15 14
19 14 9 8 8 8 7 7 9 10 13 14 8 4 5 4 3 2 3 3 0 2 2 1 2 2 2 4 3 3 6 5 4 5 5 5 6 5 6 8 6 3 2 1 2 4 1 2 7 7 5 7 5 3 4 4 5 5 1 4 3 2 2 2 3 0 2 4 4 3 5 3 4 5 10 14 14 14 14 15 16 18 19 19 17 16 14 14
16 12 9 8 10 10 9 8 9 11 12 10 4 4 6 5 1 2 3 2 2 1 2 2 3 4 5 5 2 2 6 6 5 6 5 4 5 5 6 11 12 5 1 2 2 2 1 1 6 6 3 5 5 2 2 4 3 4 3 3 2 4 4 3 3 2 2 3 3 1 2 4 4 4 8 9 10 11 12 13 13 14 15 16 14 14 14 14
13 11 10 9 10 8 6 6 8 9 7 4 5 5 6 3 2 2 2 4 2 2 4 3 4 6 6 5 5 4 4 3 4 7 8 5 5 5 5 7 11 6 3 3 1 1 2 2 5 4 1 5 8 5 4 2 2 4 1 2 1 1 3 2 3 5 4 1 1 0 2 4 5 2 7 9 7 5 7 9 11 12 12 12 12 14 15 15
13 11 8 7 8 5 3 4 6 6 3 4 6 5 4 1 2 1 1 3 2 3 4 5 7 6 4 4 5 7 4 3 2 4 6 5 5 6 5 4 8 8 4 2 1 3 2 2 5 5 3 7 7 4 5 7 1 3 4 2 5 4 4 2 3 1 4 3 1 2 2 4 3 2 11 17 14 11 8 5 8 11 13 14 14 15 16 16
15 11 6 7 8 3 2 3 4 4 3 5 7 4 1 1 2 2 2 3 3 2 3 4 4 4 2 3 4 6 5 4 3 3 3 3 4 6 7 4 6 8 5 1 2 1 1 3 4 5 4 7 7 2 7 10 4 1 2 4 7 2 3 2 1 2 4 3 3 2 3 3 5 2 9 18 18 16 14 10 7 8 12 16 16 17 18 18
14 9 4 9 10 3 2 1 2 2 4 5 7 5 2 3 4 3 3 3 2 4 6 4 2 3 1 1 4 7 5 3 3 4 3 3 3 4 5 4 5 8 8 4 2 1 1 2 4 5 4 6 6 5 4 7 7 3 1 4 4 3 2 3 1 1 1 2 2 3 2 3 4 3 9 15 16 17 16 13 11 8 10 15 16 18 20 19
11 5 2 12 14 5 4 1 1 4 5 5 5 4 2 3 5 5 4 3 4 5 5 3 2 3 2 2 2 6 7 5 3 3 3 3 1 3 5 4 4 7 8 6 3 1 2 2 3 5 7 5 4 6 4 6 8 6 3 5 4 2 1 2 0 2 1 2 2 2 2 2 2 4 8 11 14 17 17 16 13 10 11 14 15 16 18 17
7 3 1 15 17 4 3 1 3 5 5 3 3 2 3 2 4 8 8 7 6 4 4 3 3 3 3 4 3 4 6 6 4 4 3 3 1 2 6 5 4 7 6 6 5 2 2 3 2 6 7 5 3 3 3 3 5 7 6 7 6 4 1 1 1 1 1 2 1 0 2 2 4 3 7 10 14 16 17 17 15 13 11 14 15 14 16 17
5 3 3 18 18 2 2 2 4 4 3 2 2 2 3 3 3 7 9 8 7 4 4 4 5 4 3 4 5 4 4 5 5 4 3 4 3 1 4 4 4 5 5 5 6 4 2 2 1 4 5 3 2 4 4 3 1 3 5 5 5 5 3 2 2 3 2 2 0 1 1 4 2 4 6 8 12 14 16 17 16 17 15 12 16 14 14 16
5 3 6 21 18 2 3 5 2 2 3 3 2 2 4 4 3 6 7 6 6 5 5 5 5 5 4 4 4 4 4 4 4 4 3 3 4 1 4 6 5 3 3 3 3 2 1 2 2 2 2 3 6 7 4 2 2 4 5 5 4 4 4 3 1 3 3 2 2 1 2 5 1 5 6 6 10 12 15 17 16 18 18 9 13 15 14 14
3 0 8 23 19 4 5 6 3 3 4 2 2 4 5 4 4 6 6 6 5 3 5 5 4 5 5 4 4 3 4 4 5 4 3 2 4 3 6 7 6 3 3 2 3 3 2 3 3 3 3 4 5 5 4 7 6 4 4 5 5 4 3 1 3 2 2 2 3 3 1 4 3 6 7 7 10 12 14 17 18 17 19 15 4 11 11 11
0 3 5 20 24 13 7 4 2 4 4 3 5 6 5 5 6 7 6 6 5 3 3 4 4 4 4 4 5 4 3 4 4 4 3 2 2 4 7 8 6 3 3 1 1 1 2 1 3 3 4 5 6 6 5 5 6 3 3 5 5 5 6 4 1 1 1 1 5 3 2 5 5 7 9 10 11 13 14 16 18 17 19 19 12 5 3 2
2 0 4 12 22 16 5 2 3 4 4 6 8 6 5 4 6 8 7 6 6 5 4 3 3 3 4 4 6 7 7 5 3 2 3 2 2 3 6 7 5 3 4 4 3 2 2 2 2 4 3 1 1 2 3 4 5 3 4 7 7 6 7 5 3 3 1 2 5 1 4 6 9 9 12 13 12 14 14 15 17 18 19 20 18 16 13 10
2 3 3 6 10 8 3 2 3 4 3 5 6 6 5 4 4 7 8 6 6 6 6 3 3 3 5 5 6 7 8 6 3 2 2 1 2 2 3 6 6 6 8 10 8 4 3 3 3 5 5 3 4 4 4 3 3 5 8 10 9 7 6 3 3 2 1 2 5 3 3 7 12 11 13 14 12 12 13 15 16 16 19 19 18 17 17 15
2 2 2 2 4 4 4 5 4 4 3 3 4 4 5 5 4 6 7 5 4 5 5 5 6 4 4 5 5 4 4 5 5 3 2 1 2 3 4 3 5 8 8 7 5 3 4 3 3 5 4 4 5 5 5 3 2 5 8 10 9 9 6 3 1 3 2 2 5 5 3 8 10 9 11 12 12 11 11 13 14 13 15 16 17 19 20 20
2 1 0 0 1 2 3 4 5 7 6 4 4 3 4 6 7 5 4 4 5 5 4 4 8 6 4 4 5 3 3 4 4 3 1 1 2 3 5 4 3 6 7 4 4 3 5 2 2 4 1 2 3 3 2 1 2 4 6 8 9 9 7 4 4 6 3 2 5 8 7 8 7 7 9 9 10 10 10 10 10 12 13 15 17 19 21 21
2 1 2 1 2 1 2 3 5 8 8 5 4 4 3 6 6 4 3 3 4 6 4 4 6 6 6 5 5 3 3 3 2 2 0 1 1 1 3 3 3 5 6 4 4 3 4 1 2 4 3 4 4 4 3 3 3 4 6 7 8 8 8 5 4 6 5 5 8 9 9 7 4 5 7 7 8 8 7 8 10 12 14 15 16 17 17 19
2 1 2 2 3 3 3 4 4 6 6 4 3 3 3 5 5 3 3 3 3 4 4 5 4 4 5 6 5 4 2 5 4 1 2 1 2 1 1 1 2 4 5 3 3 4 3 2 2 4 3 4 5 5 6 5 3 3 5 6 7 8 8 5 4 5 4 4 7 7 4 3 4 6 6 7 8 8 8 10 11 11 13 14 15 15 15 17
1 2 0 3 3 5 4 3 3 5 4 4 2 2 3 3 3 1 2 3 3 2 1 4 4 3 4 6 7 3 1 4 3 3 3 3 1 1 1 2 1 3 5 2 2 3 3 1 2 4 3 3 4 4 6 7 5 2 2 5 7 7 6 4 3 5 6 6 8 5 3 3 7 8 6 5 8 10 11 11 10 10 11 12 13 13 13 14
4 1 1 4 3 5 4 3 4 4 2 2 1 2 2 1 2 2 3 2 1 3 3 4 5 4 4 6 5 4 5 4 4 5 2 2 2 2 3 3 1 1 1 1 1 1 3 2 1 3 2 3 5 4 5 4 5 3 2 4 4 4 4 4 2 7 7 5 4 4 4 5 7 9 7 6 7 9 9 9 9 8 9 10 11 11 12 12
Wind_Direction
348 348 348 347 347 349 351 354 356 357 358 356 354 352 351 352 351 351 348 344 342 339 339 343 342 337 337 335 318 312 313 306 302 259 232 258 234 200 176 173 161 150 161 171 163 156 153 161 176 175 167 177 206 218 214 225 210 149 195 199 249 245 220 171 170 185 131 140 146 142 149 133 134 145 184 164 43 62 78 81 110 82 106 123 129 141 146 148
346 346 346 346 346 346 348 351 354 355 356 356 355 352 350 350 349 351 348 343 341 340 342 345 347 348 346 340 324 318 319 310 297 259 248 241 168 170 165 163 160 154 159 167 166 159 151 162 174 169 162 179 202 200 198 203 191 194 189 175 233 228 194 161 142 152 140 138 138 137 149 133 128 147 199 147 113 119 119 110 112 109 116 121 134 145 147 148
343 343 343 345 345 344 345 347 350 352 354 355 354 352 350 348 348 350 347 343 340 341 344 351 359 1 355 338 328 326 319 317 297 265 276 172 160 161 160 163 164 162 164 169 172 168 158 161 164 155 157 198 207 203 207 191 185 203 197 218 245 219 190 148 140 159 146 137 140 139 140 127 114 128 189 141 132 152 151 140 136 135 137 136 145 151 147 149
341 341 341 343 343 341 341 343 346 349 352 354 353 352 349 345 346 347 346 342 340 341 346 355 0 359 354 335 327 327 318 332 289 250 344 163 164 160 163 167 171 176 172 166 174 174 155 148 157 155 161 202 222 218 233 218 188 185 195 226 249 182 173 149 137 150 148 142 143 137 133 131 123 127 157 143 134 170 185 161 149 148 149 148 153 153 150 153
339 339 340 342 341 338 338 341 342 345 350 352 352 351 348 345 344 344 345 342 339 341 343 342 340 344 342 332 326 323 329 54 236 232 179 175 169 164 166 164 170 183 178 164 170 176 162 143 154 171 179 207 206 212 231 223 220 230 215 229 262 136 160 139 129 141 149 138 135 140 139 134 128 125 156 162 159 181 182 160 151 153 153 154 156 152 152 155
338 338 339 340 340 337 336 338 340 343 346 350 352 350 348 344 341 342 342 340 339 338 338 319 314 330 331 329 322 320 29 135 243 217 188 180 177 172 168 163 164 178 184 179 170 171 167 135 151 181 190 222 211 218 233 214 216 246 245 232 239 188 174 143 132 136 145 141 144 148 136 125 132 138 160 185 185 142 125 40 147 156 156 156 154 151 156 159
337 337 337 338 338 336 335 336 338 340 344 347 349 349 346 341 338 340 338 338 339 336 334 309 301 321 326 326 313 360 68 261 241 185 192 183 182 180 171 168 167 175 186 184 167 165 165 149 163 177 183 231 219 228 247 232 218 234 265 254 225 200 181 158 144 141 148 148 143 132 124 137 147 142 151 184 174 120 94 14 151 156 157 158 154 155 160 160
336 337 337 337 337 336 335 336 337 338 342 344 346 346 344 339 336 336 335 335 333 331 325 300 300 318 325 325 272 9 323 254 206 178 193 179 178 181 174 175 180 183 187 188 179 168 165 168 176 172 185 225 236 249 244 239 228 227 248 254 226 193 175 157 146 147 145 134 131 129 130 148 138 122 135 165 175 180 135 20 179 157 158 162 155 158 160 158
336 337 337 337 337 336 335 336 338 339 341 342 343 343 341 338 334 333 331 330 328 325 317 295 301 322 329 212 119 24 229 218 180 180 184 174 175 183 182 184 191 190 188 195 190 174 175 184 186 180 185 229 255 275 253 227 223 225 237 246 236 190 166 157 148 151 144 131 141 133 123 136 139 130 146 186 178 168 148 168 196 162 162 168 159 161 162 160
337 338 338 339 339 338 337 338 339 340 341 341 340 339 339 336 333 331 327 327 327 320 311 286 301 329 328 185 106 100 199 191 186 182 178 176 175 182 190 193 193 190 188 194 191 186 192 182 178 186 217 266 252 260 251 221 238 258 248 259 248 195 161 162 153 148 137 138 155 134 124 137 156 170 191 199 176 153 159 178 196 169 167 171 162 163 164 164
338 338 338 340 342 341 340 341 341 341 341 340 338 337 337 335 331 329 324 324 324 317 296 260 303 325 247 142 114 198 197 176 209 187 180 183 180 186 195 198 195 191 188 188 192 199 204 190 153 181 212 277 295 286 264 232 300 302 279 299 267 165 152 165 152 146 134 143 171 129 117 122 131 248 207 183 172 163 167 178 190 172 170 174 164 162 165 167
337 338 339 342 344 344 344 343 342 342 341 339 337 335 336 335 330 325 318 321 320 311 272 240 299 258 226 70 205 214 183 29 233 198 195 189 190 198 200 201 200 196 192 185 199 205 205 207 286 320 240 332 332 304 290 279 308 296 279 319 99 125 140 170 144 151 143 138 172 132 103 151 213 213 172 163 164 163 166 175 183 172 170 176 164 161 168 167
336 338 341 344 345 345 345 344 342 342 340 338 336 335 336 334 327 317 307 314 313 296 256 215 237 212 156 260 229 216 266 350 260 210 208 197 204 209 197 204 207 206 200 193 205 206 202 208 243 288 281 323 303 265 285 295 302 283 277 87 126 98 147 181 138 151 141 129 172 160 104 209 215 199 159 155 154 155 166 176 179 172 171 175 165 163 169 169
338 340 343 345 345 345 344 343 342 342 340 338 337 336 337 332 319 304 296 294 283 265 228 205 210 174 155 257 251 264 327 333 214 217 212 201 203 195 191 201 207 208 203 200 206 197 196 209 235 274 276 253 252 270 297 303 318 279 276 75 132 141 191 184 155 154 140 138 180 188 322 210 205 187 167 164 159 158 172 179 177 174 172 173 167 166 171 174
339 341 344 346 345 344 343 341 342 341 339 339 338 339 338 329 308 292 287 232 212 213 205 200 195 167 358 285 272 274 268 257 216 218 215 205 194 182 193 200 203 202 200 200 196 180 191 203 222 258 262 246 240 278 316 329 342 328 245 328 185 192 182 171 172 173 152 144 184 197 295 214 186 177 168 165 167 167 174 178 179 176 172 173 169 168 172 176
341 343 345 345 344 344 342 340 342 341 339 340 340 343 341 331 312 279 188 162 167 180 173 126 192 184 27 290 287 275 205 217 228 214 208 206 202 200 191 187 195 198 200 203 206 208 198 199 218 223 241 261 236 241 338 349 337 352 94 205 200 178 152 159 181 197 157 116 185 212 259 279 168 173 163 160 171 174 176 177 181 179 173 173 171 171 172 174
342 345 345 344 343 342 340 340 342 340 339 340 342 346 348 352 25 129 130 134 142 153 133 91 174 217 283 285 305 327 259 225 234 217 204 211 214 200 167 158 179 185 194 209 215 228 200 191 234 234 247 270 198 134 29 299 289 326 12 96 223 160 144 156 169 198 177 133 190 215 238 280 208 168 160 163 171 176 180 179 182 181 175 175 173 175 174 173
343 344 344 343 341 340 340 340 341 341 337 339 347 350 12 58 93 116 113 113 112 114 92 61 53 66 267 291 313 299 291 239 215 200 189 205 207 183 155 151 150 145 143 193 202 211 201 213 249 286 309 296 144 115 153 229 204 142 37 33 322 341 143 163 163 187 183 174 198 204 223 265 247 163 164 172 174 179 184 181 182 181 177 177 176 178 178 177
342 344 344 342 341 339 338 339 342 341 336 341 354 2 64 72 91 105 111 119 111 101 113 194 170 111 237 271 288 290 294 254 208 187 164 177 181 164 141 138 118 111 110 84 224 204 194 263 349 247 269 238 197 153 182 216 177 147 358 353 302 312 241 196 209 194 181 186 203 195 208 229 201 171 174 178 180 184 186 184 187 184 180 179 179 182 182 181
343 344 343 342 341 338 337 339 341 340 339 346 353 9 74 41 51 32 78 158 195 216 228 188 179 249 282 267 283 301 301 272 221 203 168 167 163 140 85 74 79 75 120 144 212 222 163 204 245 227 223 220 220 197 198 225 227 231 294 299 282 292 280 236 241 201 180 192 215 201 203 208 189 182 179 176 183 187 185 188 194 192 188 184 182 184 185 186
343 344 343 342 340 337 336 338 340 338 343 350 352 13 122 359 14 318 313 284 248 227 237 220 193 236 263 261 277 303 315 291 241 261 177 166 152 137 62 32 80 68 216 162 168 7 154 209 241 234 220 221 229 218 215 240 258 265 260 279 293 280 273 268 268 211 184 192 228 206 200 213 197 187 179 171 182 191 188 187 191 195 197 193 187 186 187 186
344 344 343 341 338 336 335 337 338 337 346 355 1 41 208 321 311 269 289 318 285 231 222 234 212 242 258 262 269 272 297 345 351 326 180 147 124 143 151 79 119 189 243 125 81 25 217 236 248 245 229 225 250 244 230 245 257 261 255 270 279 272 287 294 325 329 181 192 262 184 174 227 212 191 189 182 187 194 191 189 189 190 195 200 194 188 187 184
344 343 343 341 337 333 333 336 337 340 350 355 11 24 348 350 342 303 295 291 290 259 215 219 196 232 263 262 258 231 183 226 358 307 179 139 105 158 141 113 140 176 135 133 144 139 223 249 242 245 243 230 260 266 249 262 272 252 246 250 231 192 310 292 345 32 111 146 119 106 105 328 80 184 224 201 198 199 194 195 193 192 199 204 199 189 187 186
343 343 343 340 335 331 332 335 339 352 347 348 17 5 360 2 359 350 354 187 297 293 229 211 194 205 240 249 225 147 156 207 161 223 181 145 125 140 145 141 134 140 180 170 160 170 235 248 234 232 230 216 247 273 259 244 270 257 237 234 209 166 226 236 250 30 80 93 119 98 58 324 142 172 224 212 213 215 196 196 200 204 208 212 207 195 191 189
342 341 341 340 336 329 330 336 353 352 344 343 15 355 360 2 358 358 11 81 325 295 238 221 267 213 241 257 230 167 133 249 219 228 178 151 143 126 136 141 127 192 223 175 155 194 245 245 208 208 223 207 223 259 242 196 241 277 245 226 208 202 235 233 147 90 69 271 235 119 77 291 185 172 195 192 210 218 202 198 205 206 208 216 211 198 196 193
341 340 340 341 336 330 334 349 350 346 345 64 356 349 351 354 354 359 27 66 349 289 242 88 312 218 275 293 227 101 72 335 264 257 143 149 145 111 121 232 89 200 211 172 156 201 254 247 174 207 226 205 213 247 235 179 193 273 242 209 200 206 236 239 168 133 212 247 219 175 175 256 236 196 192 183 197 210 207 205 207 205 205 212 209 198 197 194
340 340 340 339 338 337 336 315 331 342 360 326 340 341 342 346 352 8 54 50 358 280 235 291 294 88 266 218 93 91 101 266 275 13 119 146 131 67 106 220 161 190 210 104 117 217 254 343 160 198 214 206 214 246 232 174 166 251 221 158 170 196 221 226 181 179 225 234 159 204 180 101 261 228 187 175 187 206 213 212 209 207 205 207 207 201 197 194
339 341 340 336 337 330 306 295 324 337 302 325 332 334 339 344 352 71 88 69 12 297 233 278 302 312 287 338 61 97 188 238 113 277 325 65 30 38 104 208 178 188 226 107 153 254 249 72 184 158 164 196 209 232 225 167 177 250 227 156 162 189 208 204 174 196 220 108 221 234 155 88 274 262 161 170 187 205 216 216 209 207 205 204 205 202 198 195
339 343 339 334 335 324 286 289 295 297 320 326 333 334 337 346 17 75 81 95 51 351 309 349 338 300 322 29 34 46 42 305 129 258 354 45 21 27 125 217 162 170 286 119 188 258 216 207 212 132 145 207 226 243 228 171 199 247 232 157 176 191 213 195 165 179 126 117 228 216 172 169 276 265 155 171 197 209 215 215 209 205 203 203 204 201 199 196
340 343 337 331 335 340 294 289 274 308 331 327 331 330 334 21 65 68 54 115 70 319 271 335 318 297 46 63 9 355 59 274 49 36 30 35 20 26 39 340 92 109 359 27 253 256 283 275 226 83 33 237 243 257 236 195 219 246 313 86 206 135 250 88 100 109 102 226 247 208 185 185 264 263 183 185 206 209 209 209 206 204 202 200 200 199 198 195
341 343 334 326 329 314 264 294 316 341 331 325 329 332 360 49 64 91 84 76 46 329 330 310 283 337 75 99 52 328 77 8 3 48 37 17 28 30 20 6 35 47 16 5 331 305 337 356 14 7 9 4 319 313 340 320 271 273 20 122 167 318 3 35 9 53 133 252 260 212 183 180 226 254 213 210 216 211 205 202 201 202 203 200 198 198 196 194
345 344 331 317 312 288 258 298 334 330 320 322 331 353 76 37 25 83 323 338 14 316 303 285 279 315 111 92 64 33 70 38 26 67 68 35 39 46 45 25 358 33 28 352 335 350 15 23 349 311 22 31 21 348 341 347 25 43 46 77 102 304 18 73 296 227 182 253 255 181 144 167 235 251 230 224 226 220 211 207 202 200 199 197 197 196 195 193
350 346 332 312 300 295 295 310 318 313 313 322 339 46 84 72 40 19 326 343 64 244 267 288 315 331 84 73 47 38 55 40 19 55 62 56 56 49 42 24 16 71 108 16 15 8 344 327 357 0 358 8 32 43 350 325 353 3 51 97 122 143 100 196 245 264 194 246 259 153 132 185 259 269 243 233 231 225 218 213 205 199 196 194 194 192 192 194
356 348 330 305 298 305 310 311 310 307 314 331 25 70 65 78 24 354 6 321 236 271 315 299 328 3 47 56 30 56 62 34 16 43 42 45 48 14 8 14 12 25 84 52 62 33 116 224 354 9 327 335 18 45 256 240 291 305 216 150 142 148 136 193 204 171 195 239 295 9 145 186 198 241 254 251 245 232 223 218 206 200 197 191 187 186 189 194
356 346 332 308 309 322 316 307 309 307 319 13 71 71 66 76 285 342 8 299 288 340 334 353 42 39 28 17 6 21 78 69 27 52 53 56 56 5 352 2 359 3 47 49 35 9 86 212 300 324 288 356 2 323 281 214 236 284 285 90 25 172 158 207 192 171 166 138 343 281 201 211 207 264 340 339 314 275 242 224 202 195 191 180 181 188 191 194
353 352 346 325 335 347 313 297 302 303 329 66 71 63 76 92 301 338 319 306 316 318 335 15 37 43 17 1 2 353 24 83 87 65 54 59 59 15 357 354 354 4 35 78 50 11 43 256 304 339 348 355 346 315 30 54 237 283 28 359 271 235 165 194 257 186 100 107 267 240 231 289 291 354 2 359 353 350 341 280 218 197 181 177 187 192 194 194
353 358 351 340 356 9 278 288 297 319 29 78 75 65 72 27 344 306 303 322 316 335 48 49 22 34 25 11 6 338 350 45 53 59 41 31 38 4 346 342 359 5 7 76 117 58 62 261 318 13 349 327 328 325 61 50 29 60 43 297 288 277 132 133 232 6 60 128 266 243 175 348 356 337 347 356 356 348 348 336 287 229 187 185 193 194 195 195
351 354 355 1 358 306 261 325 315 11 56 68 70 70 58 13 353 320 318 339 345 24 58 74 32 41 58 57 15 349 1 28 17 49 59 36 38 360 345 335 352 2 354 10 84 72 42 286 303 5 346 316 351 18 27 11 15 64 206 294 345 72 42 1 104 132 88 157 272 279 156 57 15 333 339 352 349 339 338 339 324 283 218 201 198 196 197 196
359 4 18 9 2 311 263 320 7 42 61 62 68 69 34 19 8 354 353 23 50 51 51 56 55 52 42 73 36 9 36 54 32 60 65 40 42 350 358 342 329 351 356 22 55 299 29 56 280 326 342 333 20 34 357 325 349 14 10 359 21 102 164 318 158 161 196 167 224 289 37 33 293 319 340 344 346 343 337 335 331 305 253 222 208 201 197 195
15 51 347 358 6 351 247 305 22 45 62 69 82 60 17 21 5 6 20 41 52 53 52 36 32 53 34 34 48 32 44 51 44 66 55 29 66 1 7 360 329 342 358 31 45 10 32 62 285 312 345 3 27 17 339 308 336 357 18 25 6 347 345 320 339 24 68 133 181 99 55 277 261 323 347 351 356 349 340 335 330 318 281 236 218 210 200 195
26 71 322 350 6 32 219 357 26 51 65 44 48 47 39 46 6 7 18 39 57 64 73 67 53 54 39 34 39 26 48 56 40 60 59 25 60 35 356 353 335 340 358 23 26 15 23 54 357 335 355 9 302 287 295 277 289 26 40 33 2 350 19 31 350 341 23 82 189 141 157 248 273 8 353 6 11 353 344 341 334 332 317 254 219 211 205 202
44 72 334 355 7 59 93 42 1 46 73 57 46 38 38 50 28 4 3 25 57 60 50 59 56 44 35 41 44 31 61 65 23 47 82 39 49 35 313 332 345 356 47 37 331 316 57 77 40 358 314 292 273 279 327 27 103 85 64 37 3 6 39 57 321 310 341 339 279 138 170 232 260 31 6 11 19 4 356 354 347 342 337 297 220 206 204 205
55 299 343 7 20 79 87 49 360 30 55 59 66 48 36 42 22 7 11 24 38 46 42 40 40 46 39 33 46 45 60 60 27 44 98 56 25 336 312 336 354 12 59 44 310 319 44 59 22 341 306 314 304 303 11 55 65 53 24 11 4 360 4 340 231 245 308 339 353 23 271 252 304 16 7 359 11 13 9 5 1 355 352 348 273 210 206 208
136 236 319 14 34 63 86 71 65 62 52 42 56 45 31 46 38 23 24 25 19 37 61 36 26 59 57 40 55 52 55 79 48 25 65 81 353 321 335 350 360 23 48 67 259 347 20 58 50 34 4 353 352 346 353 27 40 26 315 335 339 337 347 338 300 47 93 27 17 12 250 270 309 352 360 358 8 16 12 8 10 8 4 3 4 358 331 269
13 305 268 2 31 51 78 119 125 100 65 59 57 33 12 39 42 31 36 38 31 44 74 41 11 65 62 49 60 47 43 78 81 8 36 46 307 313 346 351 354 46 54 37 42 72 84 89 94 95 93 89 311 331 311 325 352 338 310 326 328 337 357 2 9 25 59 352 356 319 227 287 314 343 359 358 6 15 10 7 12 15 11 7 12 18 14 11
48 42 310 335 17 40 43 33 86 93 67 74 67 31 21 32 15 19 38 45 27 37 63 42 357 49 47 49 71 54 42 61 74 72 73 5 305 299 334 350 5 41 53 38 31 68 100 63 88 124 134 169 193 215 258 294 330 312 317 331 330 327 344 31 47 6 218 342 331 248 219 318 325 344 358 355 358 8 11 11 13 17 14 9 10 16 19 19
77 64 3 329 348 18 26 16 35 59 47 82 84 30 23 38 17 9 25 29 10 33 60 33 18 41 42 49 78 57 30 53 57 64 85 288 279 301 327 2 19 29 47 37 15 69 92 53 71 111 149 193 195 222 262 285 280 289 314 328 324 321 331 14 42 245 211 28 310 263 296 329 321 338 353 350 352 360 9 14 16 18 16 11 10 13 18 20
63 125 358 116 345 4 30 18 38 57 44 47 66 36 27 49 49 25 1 357 11 29 61 34 22 38 53 69 97 67 15 50 47 31 33 339 310 331 348 358 4 18 38 23 347 75 102 82 60 77 49 262 235 248 277 309 281 295 313 313 315 322 321 309 262 248 217 167 252 270 300 309 311 342 352 348 348 350 357 7 16 20 17 16 16 15 16 17
55 77 320 20 77 51 28 18 50 64 46 33 47 33 32 56 52 29 352 3 14 14 52 64 25 34 56 67 97 81 43 77 48 343 248 14 359 42 16 348 329 2 30 26 359 59 99 59 42 65 24 329 313 323 355 18 353 331 310 301 313 321 308 294 276 267 249 222 240 266 287 290 316 354 356 355 347 340 352 10 20 20 17 19 19 17 17 15
64 93 318 23 52 26 21 18 48 66 42 30 50 28 24 53 45 14 11 49 53 356 22 78 67 55 67 71 86 90 155 162 151 199 174 105 6 27 57 262 272 346 15 36 12 32 64 16 27 71 43 322 309 330 343 344 341 305 285 304 334 337 328 330 320 307 306 281 267 271 285 309 344 357 7 9 359 1 15 21 25 20 14 18 20 16 16 16
22 224 158 87 46 1 6 16 51 76 41 17 48 25 15 31 20 22 28 39 111 106 60 111 105 62 46 54 59 51 249 186 180 230 188 139 145 216 205 226 243 352 5 29 30 37 72 19 10 62 54 294 296 334 328 322 329 307 295 334 344 343 337 326 335 12 11 326 302 312 21 7 338 347 9 13 9 21 23 17 22 22 14 17 19 14 15 17
8 291 40 96 77 7 3 11 38 72 54 354 14 36 33 354 331 79 80 351 7 119 131 136 116 76 40 37 23 323 286 275 264 262 231 160 183 206 219 248 241 122 125 132 60 89 125 110 73 90 82 281 285 311 316 337 2 341 306 328 327 344 348 318 357 33 18 346 335 3 21 360 340 350 7 7 14 29 28 17 17 16 12 16 18 14 12 14